Location: Moskva
(55.7500°N, 37.5830°E)
Time: 04:02:26
(UTC+03:00)

ISS - Visible Passes

Search period start: 28 February 2021 00:00
Search period end: 10 March 2021 00:00
Orbit: 417 x 422 km, 51.6° (Epoch: 27 February)

Date Brightness Start Highest point End Pass type
(mag) Time Alt. Az. Time Alt. Az. Time Alt. Az.
28 Feb -1.4 04:33:33 18° SE 04:33:33 18° SE 04:35:09 10° ESE visible
28 Feb -2.8 06:06:30 15° WSW 06:08:53 39° S 06:12:04 10° ESE visible
01 Mar -2.7 05:20:52 31° SSW 05:21:32 35° SSE 05:24:39 10° E visible
02 Mar -1.9 04:35:12 25° SE 04:35:12 25° SE 04:37:11 10° E visible
02 Mar -2.9 06:08:10 15° WSW 06:10:36 41° S 06:13:47 10° ESE visible
03 Mar -0.5 03:49:32 11° ESE 03:49:32 11° ESE 03:49:40 10° E visible
03 Mar -3.0 05:22:29 35° SSW 05:23:12 41° S 05:26:24 10° ESE visible
04 Mar -2.3 04:36:48 30° SE 04:36:48 30° SE 04:38:59 10° ESE visible
04 Mar -2.8 06:09:45 14° WSW 06:12:15 35° SSW 06:15:21 10° SE visible
05 Mar -0.7 03:51:07 13° ESE 03:51:07 13° ESE 03:51:32 10° E visible
05 Mar -3.0 05:24:05 33° SW 05:24:52 39° S 05:28:02 10° ESE visible
06 Mar -2.4 04:38:25 32° SE 04:38:25 32° SE 04:40:40 10° ESE visible
06 Mar -2.3 06:11:23 12° WSW 06:13:50 25° SSW 06:16:38 10° SE visible
07 Mar -0.8 03:52:48 13° ESE 03:52:48 13° ESE 03:53:16 10° ESE visible
07 Mar -2.7 05:25:45 27° SW 05:26:28 30° SSW 05:29:28 10° SE visible
08 Mar -2.2 04:40:11 27° SSE 04:40:11 27° SSE 04:42:12 10° SE visible
08 Mar -1.7 06:13:13 10° WSW 06:15:16 15° SSW 06:17:20 10° S visible
09 Mar -0.8 03:54:40 11° ESE 03:54:40 11° ESE 03:54:51 10° ESE visible
09 Mar -2.2 05:27:38 20° SW 05:27:58 20° SSW 05:30:29 10° SSE visible
